EW9200 Weather Reports


Display with metric or nautical units.
time (UTC)temp
F
wind
direction
speed
MPH
gust
MPH
rain 1hr
in
rain 24hr
in
rain mn
in
humidity
%
barometer
mb
20260906062029 73 0 0.0 3.0 0.00 0.00 0.00 89 1017.1
20260906061549 73 0 0.0 3.0 0.00 0.00 0.00 89 1017.1
20260906061028 73 307 1.0 3.0 0.00 0.00 0.00 89 1017.0
20260906060529 73 252 0.0 3.0 0.00 0.00 0.00 89 1017.0
20260906060044 73 0 0.0 3.0 0.00 0.00 0.00 89 1016.8
20260906055528 73 0 0.0 2.0 0.00 0.00 0.00 88 1016.8
20260906055027 73 115 0.0 2.0 0.00 0.00 0.00 89 1016.8
20260906054604 73 165 0.0 2.0 0.00 0.00 0.00 89 1016.8
20260906054029 73 0 0.0 5.0 0.00 0.00 0.00 89 1016.6
20260906053526 74 337 0.0 5.0 0.00 0.00 0.00 88 1016.7
20260906053050 74 310 1.0 3.0 0.00 0.00 0.00 88 1016.6
20260906052529 74 0 0.0 4.0 0.00 0.00 0.00 88 1016.6
20260906052025 74 321 0.0 4.0 0.00 0.00 0.00 88 1016.6
20260906051551 74 0 0.0 4.0 0.00 0.00 0.00 88 1016.6
20260906051027 74 0 1.0 4.0 0.00 0.00 0.00 88 1016.5
20260906050526 74 134 0.0 5.0 0.00 0.00 0.00 88 1016.5
20260906050116 74 115 1.0 5.0 0.00 0.00 0.00 88 1016.5
20260906045527 74 0 0.0 4.0 0.00 0.00 0.00 88 1016.5
20260906045026 74 115 1.0 6.0 0.00 0.00 0.00 88 1016.5
20260906044549 74 120 0.0 6.0 0.00 0.00 0.00 88 1016.3
20260906044027 74 4 0.0 3.0 0.00 0.00 0.00 88 1016.4
20260906043529 74 111 0.0 2.0 0.00 0.00 0.00 89 1016.1
20260906043047 74 117 0.0 2.0 0.00 0.00 0.00 88 1016.1
20260906042528 74 64 0.0 3.0 0.00 0.00 0.00 88 1016.1
20260906042029 74 90 0.0 3.0 0.00 0.00 0.00 88 1016.1
20260906041546 74 0 1.0 4.0 0.00 0.00 0.00 88 1016.0
20260906041026 74 0 1.0 4.0 0.00 0.00 0.00 88 1015.8
20260906040526 74 65 1.0 4.0 0.00 0.00 0.00 88 1015.9
20260906040108 74 314 1.0 7.0 0.00 0.00 0.00 88 1015.8
20260906035526 74 117 1.0 7.0 0.00 0.00 0.00 88 1015.7
20260906035026 73 347 0.0 4.0 0.00 0.00 0.00 88 1015.7
20260906034549 73 330 1.0 4.0 0.00 0.00 0.00 88 1015.8
20260906034027 73 0 1.0 4.0 0.00 0.00 0.00 88 1015.8
20260906033529 73 57 1.0 3.0 0.00 0.00 0.00 88 1015.7
20260906033055 73 100 0.0 3.0 0.00 0.00 0.00 88 1015.7
20260906032533 73 57 0.0 6.0 0.00 0.00 0.00 88 1015.8
20260906032029 73 347 1.0 6.0 0.00 0.00 0.00 88 1015.8
20260906031542 73 114 0.0 3.0 0.00 0.00 0.00 88 1015.9
20260906031029 73 300 0.0 3.0 0.00 0.00 0.00 88 1015.8
20260906030527 73 279 0.0 3.0 0.00 0.00 0.00 88 1015.8
20260906030042 73 295 1.0 4.0 0.00 0.00 0.00 88 1015.9
20260906025526 73 288 1.0 4.0 0.00 0.00 0.00 88 1015.8
20260906025028 73 99 0.0 11.0 0.00 0.00 0.00 88 1015.7
20260906024547 73 279 2.0 11.0 0.00 0.00 0.00 88 1015.7
20260906024030 73 282 2.0 4.0 0.00 0.00 0.00 89 1015.7
20260906023528 73 37 1.0 4.0 0.00 0.00 0.00 89 1015.9
20260906023047 73 312 0.0 7.0 0.00 0.00 0.00 89 1015.8
20260906022529 73 330 2.0 8.0 0.00 0.00 0.00 89 1015.9
20260906022029 73 8 1.0 8.0 0.00 0.00 0.00 88 1015.9
20260906021550 73 323 1.0 6.0 0.00 0.00 0.00 88 1015.9
20260906021029 73 319 1.0 9.0 0.00 0.00 0.00 88 1016.0
20260906020526 73 320 1.0 9.0 0.00 0.00 0.00 88 1015.9
20260906020055 73 328 2.0 9.0 0.00 0.00 0.00 88 1015.8
20260906015527 73 334 1.0 9.0 0.00 0.00 0.00 88 1015.9
20260906015028 73 316 2.0 9.0 0.00 0.00 0.00 88 1015.8
20260906014555 73 162 1.0 9.0 0.00 0.00 0.00 88 1015.9
20260906014029 73 32 2.0 8.0 0.00 0.00 0.00 87 1015.9
20260906013526 73 275 2.0 7.0 0.00 0.00 0.00 87 1015.8
20260906013056 73 284 2.0 6.0 0.00 0.00 0.00 87 1015.7
20260906012529 73 350 1.0 5.0 0.00 0.00 0.00 87 1015.7
20260906012028 73 354 0.0 4.0 0.00 0.00 0.00 87 1015.6
20260906011557 74 37 1.0 5.0 0.00 0.00 0.00 87 1015.6
20260906011028 74 346 1.0 5.0 0.00 0.00 0.00 87 1015.7
20260906010529 74 347 1.0 5.0 0.00 0.00 0.00 87 1015.7
20260906010052 74 326 1.0 10.0 0.00 0.00 0.00 87 1015.8
20260906005527 74 334 1.0 10.0 0.00 0.00 0.00 87 1015.8
20260906005029 74 328 3.0 10.0 0.00 0.00 0.00 87 1015.6
20260906004546 75 342 2.0 7.0 0.00 0.00 0.00 86 1015.7
20260906004029 75 6 1.0 6.0 0.00 0.00 0.00 86 1015.5
20260906003530 75 347 2.0 9.0 0.00 0.00 0.00 86 1015.4
20260906003053 75 321 3.0 9.0 0.00 0.00 0.00 86 1015.4
20260906002530 76 287 2.0 9.0 0.00 0.00 0.00 85 1015.3
20260906002030 76 30 3.0 6.0 0.00 0.00 0.00 85 1015.1
20260906001553 76 342 1.0 6.0 0.00 0.00 0.00 85 1015.2
20260906001030 76 329 2.0 6.0 0.00 0.00 0.00 84 1015.1
20260906000530 77 294 1.0 6.0 0.00 0.00 0.00 84 1014.9
20260906000048 77 355 1.0 6.0 0.00 0.00 0.00 83 1014.9
20260905235530 78 271 3.0 6.0 0.00 0.00 0.00 82 1014.8
20260905235032 78 294 3.0 6.0 0.00 0.00 0.00 82 1014.7
20260905234602 78 7 2.0 7.0 0.00 0.00 0.00 81 1014.6
20260905234030 79 320 3.0 7.0 0.00 0.00 0.00 81 1014.7
20260905233532 79 330 2.0 11.0 0.00 0.00 0.00 80 1014.7
20260905233054 80 320 2.0 11.0 0.00 0.00 0.00 79 1014.6
20260905232530 80 282 1.0 6.0 0.00 0.00 0.00 78 1014.6
20260905232032 81 13 2.0 4.0 0.00 0.00 0.00 78 1014.7
20260905231555 81 297 1.0 4.0 0.00 0.00 0.00 78 1014.5
20260905231031 81 127 0.0 5.0 0.00 0.00 0.00 78 1014.5
20260905230528 81 71 0.0 8.0 0.00 0.00 0.00 77 1014.4
20260905230107 82 86 2.0 8.0 0.00 0.00 0.00 76 1014.4
20260905225527 82 302 1.0 6.0 0.00 0.00 0.00 77 1014.4
20260905225027 82 6 2.0 5.0 0.00 0.00 0.00 76 1014.1
20260905224544 82 141 2.0 5.0 0.00 0.00 0.00 75 1014.1
20260905224034 82 12 1.0 7.0 0.00 0.00 0.00 76 1014.1
20260905223530 82 324 1.0 7.0 0.00 0.00 0.00 76 1014.2
20260905223052 82 6 3.0 7.0 0.00 0.00 0.00 75 1014.2
20260905222535 82 332 1.0 5.0 0.00 0.00 0.00 75 1014.1
20260905222033 82 267 3.0 5.0 0.00 0.00 0.00 76 1014.3
20260905221548 83 338 1.0 6.0 0.00 0.00 0.00 76 1014.2
20260905221029 83 106 1.0 6.0 0.00 0.00 0.00 76 1014.2
20260905220527 83 124 1.0 5.0 0.00 0.00 0.00 76 1014.1
20260905220047 83 333 1.0 7.0 0.00 0.00 0.00 77 1014.1
20260905215530 83 342 3.0 7.0 0.00 0.00 0.00 76 1014.3
20260905215029 83 350 1.0 6.0 0.00 0.00 0.00 75 1014.3
20260905214542 83 326 1.0 6.0 0.00 0.00 0.00 77 1014.3
20260905214028 83 350 2.0 6.0 0.00 0.00 0.00 76 1014.3
20260905213531 83 323 2.0 6.0 0.00 0.00 0.00 77 1014.2
20260905213050 83 120 2.0 7.0 0.00 0.00 0.00 78 1014.2
20260905212530 82 347 2.0 7.0 0.00 0.00 0.00 78 1014.2
20260905212029 82 75 2.0 7.0 0.00 0.00 0.00 79 1014.2
20260905211601 83 304 3.0 7.0 0.00 0.00 0.00 77 1014.1
20260905211028 84 304 2.0 6.0 0.00 0.00 0.00 77 1014.1
20260905210528 84 316 2.0 6.0 0.00 0.00 0.00 76 1014.2
20260905210057 84 315 2.0 7.0 0.00 0.00 0.00 77 1014.1
20260905205528 84 352 3.0 7.0 0.00 0.00 0.00 76 1014.1
20260905205031 84 7 3.0 7.0 0.00 0.00 0.00 76 1014.2
20260905204552 84 48 1.0 8.0 0.00 0.00 0.00 76 1014.2
20260905204030 84 98 2.0 8.0 0.00 0.00 0.00 76 1014.2
20260905203528 84 302 4.0 11.0 0.00 0.00 0.00 76 1014.2
20260905203055 85 321 3.0 11.0 0.00 0.00 0.00 75 1014.2
20260905202531 85 94 2.0 6.0 0.00 0.00 0.00 76 1014.2
20260905202030 85 132 2.0 7.0 0.00 0.00 0.00 76 1014.2
20260905201543 84 327 3.0 7.0 0.00 0.00 0.00 77 1014.2
20260905201029 84 269 4.0 9.0 0.00 0.00 0.00 76 1014.3
20260905200530 84 334 2.0 9.0 0.00 0.00 0.00 76 1014.3
20260905200104 85 324 2.0 5.0 0.00 0.00 0.00 76 1014.2
20260905195528 85 319 2.0 5.0 0.00 0.00 0.00 75 1014.2
20260905195030 86 338 2.0 9.0 0.00 0.00 0.00 75 1014.1
20260905194550 86 109 2.0 9.0 0.00 0.00 0.00 75 1014.0
20260905194029 86 236 3.0 9.0 0.00 0.00 0.00 74 1014.1
20260905193529 86 23 2.0 8.0 0.00 0.00 0.00 75 1014.1
20260905193110 86 169 3.0 8.0 0.00 0.00 0.00 73 1014.0
20260905192533 87 309 2.0 8.0 0.00 0.00 0.00 73 1014.2
20260905192030 86 330 2.0 8.0 0.00 0.00 0.00 75 1014.2
20260905191544 87 320 3.0 7.0 0.00 0.00 0.00 74 1014.2
20260905191031 87 302 3.0 7.0 0.00 0.00 0.00 74 1014.2
20260905190530 87 350 1.0 8.0 0.00 0.00 0.00 74 1014.2
20260905190052 87 290 3.0 8.0 0.00 0.00 0.00 73 1014.2
20260905185529 87 274 1.0 6.0 0.00 0.00 0.00 76 1014.2
20260905185027 86 290 3.0 6.0 0.00 0.00 0.00 75 1014.3
20260905184600 87 293 1.0 5.0 0.00 0.00 0.00 74 1014.4
20260905184027 87 331 1.0 6.0 0.00 0.00 0.00 75 1014.2
20260905183529 87 83 1.0 6.0 0.00 0.00 0.00 74 1014.3
20260905183100 87 146 2.0 6.0 0.00 0.00 0.00 73 1014.2
20260905182532 87 306 3.0 6.0 0.00 0.00 0.00 73 1014.3
20260905182030 88 318 1.0 6.0 0.00 0.00 0.00 74 1014.2
20260905181555 88 304 2.0 5.0 0.00 0.00 0.00 75 1014.2
20260905181030 87 273 2.0 5.0 0.00 0.00 0.00 74 1014.3
20260905180529 87 327 2.0 6.0 0.00 0.00 0.00 73 1014.4
20260905180051 87 136 2.0 6.0 0.00 0.00 0.00 75 1014.2
20260905175529 88 302 2.0 6.0 0.00 0.00 0.00 72 1014.2
20260905175028 88 256 2.0 7.0 0.00 0.00 0.00 73 1014.3
20260905174548 88 304 1.0 7.0 0.00 0.00 0.00 73 1014.3
20260905174030 88 354 1.0 5.0 0.00 0.00 0.00 73 1014.2
20260905173530 88 316 2.0 6.0 0.00 0.00 0.00 75 1014.2
20260905173044 88 143 1.0 6.0 0.00 0.00 0.00 74 1014.3
20260905172530 87 275 3.0 6.0 0.00 0.00 0.00 74 1014.3
20260905172030 87 122 2.0 6.0 0.00 0.00 0.00 75 1014.3
20260905171602 87 320 2.0 6.0 0.00 0.00 0.00 75 1014.4
20260905171029 87 325 1.0 4.0 0.00 0.00 0.00 74 1014.4
20260905170526 87 341 2.0 6.0 0.00 0.00 0.00 77 1014.5
20260905170053 86 349 2.0 6.0 0.00 0.00 0.00 77 1014.6
20260905165530 86 127 1.0 6.0 0.00 0.00 0.00 77 1014.5
20260905165029 86 17 2.0 6.0 0.00 0.00 0.00 78 1014.6
20260905164549 86 337 2.0 7.0 0.00 0.00 0.00 78 1014.7
20260905164029 86 307 3.0 7.0 0.00 0.00 0.00 77 1014.6
20260905163530 86 326 1.0 6.0 0.00 0.00 0.00 78 1014.6
20260905163047 86 309 2.0 6.0 0.00 0.00 0.00 78 1014.6
20260905162530 86 319 2.0 7.0 0.00 0.00 0.00 77 1014.6
20260905162029 85 303 1.0 7.0 0.00 0.00 0.00 79 1014.7
20260905161554 85 9 1.0 6.0 0.00 0.00 0.00 79 1014.7
20260905161027 85 326 3.0 6.0 0.00 0.00 0.00 78 1014.7
20260905160533 85 323 2.0 6.0 0.00 0.00 0.00 80 1014.7
20260905160053 84 293 2.0 6.0 0.00 0.00 0.00 80 1014.6
20260905155530 84 312 2.0 5.0 0.00 0.00 0.00 81 1014.6
20260905155030 84 306 1.0 5.0 0.00 0.00 0.00 82 1014.4
20260905154601 83 331 2.0 8.0 0.00 0.00 0.00 82 1014.6
20260905154030 83 304 2.0 8.0 0.00 0.00 0.00 82 1014.5
20260905153530 83 355 3.0 8.0 0.00 0.00 0.00 82 1014.5
20260905153057 83 17 2.0 6.0 0.00 0.00 0.00 83 1014.4
20260905152530 82 299 1.0 6.0 0.00 0.00 0.00 83 1014.4
20260905152029 82 8 2.0 6.0 0.00 0.00 0.00 85 1014.4
20260905151555 82 76 2.0 7.0 0.00 0.00 0.00 85 1014.2
20260905151029 82 323 2.0 7.0 0.00 0.00 0.00 85 1014.2
20260905150528 82 316 1.0 7.0 0.00 0.00 0.00 85 1014.2
20260905150050 82 307 1.0 7.0 0.00 0.00 0.00 85 1014.2
20260905145532 82 304 1.0 6.0 0.00 0.00 0.00 86 1014.2
20260905145030 81 328 1.0 7.0 0.00 0.00 0.00 87 1014.2
20260905144547 81 357 3.0 8.0 0.00 0.00 0.00 86 1014.1
20260905144027 81 332 3.0 8.0 0.00 0.00 0.00 86 1014.1
20260905143529 81 17 2.0 8.0 0.00 0.00 0.00 87 1014.0
20260905143056 81 335 4.0 8.0 0.00 0.00 0.00 85 1013.9
20260905142528 82 9 2.0 7.0 0.00 0.00 0.00 86 1013.9
20260905142027 82 333 3.0 7.0 0.00 0.00 0.00 85 1013.9
20260905141553 82 345 2.0 6.0 0.00 0.00 0.00 86 1013.9
20260905141030 82 351 2.0 6.0 0.00 0.00 0.00 87 1013.7
20260905140532 81 293 2.0 6.0 0.00 0.00 0.00 87 1013.6
20260905140052 81 328 2.0 6.0 0.00 0.00 0.00 87 1013.6
20260905135529 81 79 1.0 5.0 0.00 0.00 0.00 89 1013.6
20260905135028 81 325 1.0 3.0 0.00 0.00 0.00 88 1013.6
20260905134548 81 336 0.0 5.0 0.00 0.00 0.00 89 1013.6
20260905134028 81 319 1.0 5.0 0.00 0.00 0.00 89 1013.7
20260905133527 80 317 0.0 6.0 0.00 0.00 0.00 90 1013.7
20260905133054 80 276 1.0 6.0 0.00 0.00 0.00 90 1013.9
20260905132528 80 309 3.0 6.0 0.00 0.00 0.00 90 1014.0
20260905132028 80 8 2.0 5.0 0.00 0.00 0.00 91 1014.0
20260905131552 80 321 1.0 6.0 0.00 0.00 0.00 91 1013.9
20260905131030 80 319 0.0 6.0 0.00 0.00 0.00 91 1013.5
20260905130529 80 297 1.0 6.0 0.00 0.00 0.00 92 1013.5
20260905130043 79 5 1.0 4.0 0.00 0.00 0.00 93 1013.4
20260905125527 79 316 1.0 4.0 0.00 0.00 0.00 93 1013.3
20260905125028 79 330 1.0 4.0 0.00 0.00 0.00 93 1013.3
20260905124543 79 349 1.0 3.0 0.00 0.00 0.00 95 1013.2
20260905124033 78 339 0.0 2.0 0.00 0.00 0.00 95 1013.1
20260905123527 78 339 1.0 2.0 0.00 0.00 0.00 96 1013.1
20260905123049 77 6 0.0 2.0 0.00 0.00 0.00 96 1013.0
20260905122528 77 331 0.0 1.0 0.00 0.00 0.00 97 1013.0
20260905122027 76 0 0.0 1.0 0.00 0.00 0.00 98 1012.9
20260905121600 76 0 0.0 1.0 0.00 0.00 0.00 99 1012.9
20260905121028 76 342 0.0 1.0 0.00 0.00 0.00 99 1013.0
20260905120532 76 0 0.0 1.0 0.00 0.00 0.00 99 1012.9
20260905120053 76 0 0.0 0.0 0.00 0.00 0.00 99 1013.0
20260905115528 75 0 0.0 1.0 0.00 0.00 0.00 99 1012.8
20260905115029 75 0 0.0 1.0 0.00 0.00 0.00 100 1012.9
20260905114550 75 0 0.0 1.0 0.00 0.00 0.00 100 1012.7
20260905114027 75 0 0.0 0.0 0.00 0.00 0.00 100 1012.7
20260905113527 75 0 0.0 0.0 0.00 0.00 0.00 100 1012.4
20260905113102 75 0 0.0 0.0 0.00 0.00 0.00 100 1012.5
20260905112530 75 0 0.0 0.0 0.00 0.00 0.00 99 1012.4
20260905112027 75 0 0.0 0.0 0.00 0.00 0.00 99 1012.4
20260905111544 75 0 0.0 0.0 0.00 0.00 0.00 99 1012.3
20260905111029 75 0 0.0 0.0 0.00 0.00 0.00 99 1012.4
20260905110528 75 0 0.0 0.0 0.00 0.00 0.00 99 1012.1
20260905110042 75 0 0.0 0.0 0.00 0.00 0.00 99 1012.2
20260905105530 75 0 0.0 0.0 0.00 0.00 0.00 99 1012.1
20260905105029 75 0 0.0 0.0 0.00 0.00 0.00 99 1012.3
20260905104542 75 0 0.0 0.0 0.00 0.00 0.00 99 1012.3
20260905104031 75 0 0.0 0.0 0.00 0.00 0.00 99 1012.4
20260905103527 75 0 0.0 0.0 0.00 0.00 0.00 99 1012.3
20260905103049 75 0 0.0 0.0 0.00 0.00 0.00 99 1012.3
20260905102528 75 0 0.0 0.0 0.00 0.00 0.00 99 1012.5
20260905102029 75 0 0.0 0.0 0.00 0.00 0.00 99 1012.4
20260905101544 75 0 0.0 0.0 0.00 0.00 0.00 99 1012.3
20260905101030 75 0 0.0 0.0 0.00 0.00 0.00 99 1012.2
20260905100525 75 0 0.0 0.0 0.00 0.00 0.00 99 1012.2
20260905100047 75 0 0.0 0.0 0.00 0.00 0.00 99 1012.3
20260905095528 75 0 0.0 0.0 0.00 0.00 0.00 99 1012.4
20260905095028 75 0 0.0 0.0 0.00 0.00 0.00 99 1012.2
20260905094540 75 0 0.0 0.0 0.00 0.00 0.00 99 1012.5
20260905094028 75 0 0.0 0.0 0.00 0.00 0.00 99 1012.5
20260905093527 75 0 0.0 0.0 0.00 0.00 0.00 99 1012.4
20260905093054 75 0 0.0 0.0 0.00 0.00 0.00 99 1012.4
20260905092528 75 0 0.0 0.0 0.00 0.00 0.00 99 1012.2
20260905092029 75 0 0.0 0.0 0.00 0.00 0.00 99 1012.4
20260905091543 75 0 0.0 0.0 0.00 0.00 0.00 99 1012.4
20260905091028 75 0 0.0 1.0 0.00 0.00 0.00 99 1012.3
20260905090526 75 0 0.0 1.0 0.00 0.00 0.00 99 1012.5
20260905090044 75 0 0.0 0.0 0.00 0.00 0.00 98 1012.3
20260905085531 75 0 0.0 0.0 0.00 0.00 0.00 98 1012.4
20260905085030 75 0 0.0 0.0 0.00 0.00 0.00 98 1012.4
20260905084551 75 0 0.0 0.0 0.00 0.00 0.00 98 1012.3
20260905084028 75 0 0.0 0.0 0.00 0.00 0.00 98 1012.3
20260905083527 76 0 0.0 1.0 0.00 0.00 0.00 97 1012.4
20260905083050 76 0 0.0 1.0 0.00 0.00 0.00 98 1012.2
20260905082529 76 0 0.0 0.0 0.00 0.00 0.00 97 1012.3
20260905082029 76 0 0.0 0.0 0.00 0.00 0.00 97 1012.3
20260905081544 76 0 0.0 0.0 0.00 0.00 0.00 96 1012.4
20260905081028 76 0 0.0 0.0 0.00 0.00 0.00 96 1012.4
20260905080528 77 0 0.0 0.0 0.00 0.00 0.00 96 1012.4
20260905080047 77 0 0.0 2.0 0.00 0.00 0.00 96 1012.5
20260905075526 77 0 0.0 2.0 0.00 0.00 0.00 96 1012.4
20260905075025 77 0 0.0 2.0 0.00 0.00 0.00 96 1012.5
20260905074541 77 321 0.0 1.0 0.00 0.00 0.00 96 1012.4
20260905074028 77 275 0.0 1.0 0.00 0.00 0.00 97 1012.3
20260905073529 77 0 0.0 0.0 0.00 0.00 0.00 97 1012.2
20260905073048 77 0 0.0 0.0 0.00 0.00 0.00 97 1012.2
20260905072528 77 0 0.0 0.0 0.00 0.00 0.00 97 1012.4
20260905072029 76 0 0.0 0.0 0.00 0.00 0.00 97 1012.3
20260905071548 76 0 0.0 0.0 0.00 0.00 0.00 97 1012.3
20260905071031 77 0 0.0 0.0 0.00 0.00 0.00 97 1012.4
20260905070529 77 0 0.0 0.0 0.00 0.00 0.00 97 1012.4
20260905070048 77 0 0.0 0.0 0.00 0.00 0.00 97 1012.5
20260905065528 77 0 0.0 0.0 0.00 0.00 0.00 96 1012.4
20260905065028 77 0 0.0 0.0 0.00 0.00 0.00 96 1012.4
20260905064545 77 0 0.0 0.0 0.00 0.00 0.00 97 1012.4
20260905064027 77 0 0.0 0.0 0.00 0.00 0.00 96 1012.4
20260905063528 77 0 0.0 0.0 0.00 0.00 0.00 96 1012.5
20260905063049 77 0 0.0 0.0 0.00 0.00 0.00 96 1012.6
20260905062528 78 0 0.0 0.0 0.00 0.00 0.00 95 1012.5